Regional Weather Roundup
Issued by NWS Green Bay, WI

Home | Current Version | Previous Version | Text Only | Print | Product List | Glossary On
Versions: 1 2 3 4 5 6 7 8 9 10 11 12 13 14 15 16 17 18 19 20 21 22 23 24 25 26 27 28 29 30 31 32 33 34 35 36 37 38 39 40 41 42 43 44 45 46 47 48 49 50
000
ASUS43 KGRB 240211
RWRGRB

NORTH-CENTRAL AND NORTHEAST WISCONSIN REGIONAL WEATHER ROUNDUP
NATIONAL WEATHER SERVICE GREEN BAY WI
900 PM CDT TUE AUG 23 2016

WIZ005-009-010>012-018-019-240300-
NORTH CENTRAL WISCONSIN

CITY           SKY/WX    TMP DP  RH WIND       PRES   REMARKS
IRONWOOD       PTCLDY    72  64  76 S6        29.95F
MANITOWISH WTR CLOUDY    68  65  89 S6        29.99F
ARBOR VITAE    PTCLDY    72  65  78 S7        30.01S
EAGLE RIVER    CLOUDY    67  60  77 CALM      30.02F
LAND O LAKES   PTCLDY    67  61  80 SE3       30.03S
RHINELANDER    PTCLDY    68  64  87 SE5       30.03F
PHILLIPS       CLOUDY    69  64  85 SE3       29.98F
ANTIGO         CLOUDY    64  61  92 SE5       30.05S
TOMAHAWK       PTCLDY    64  61  88 CALM      30.01F
MERRILL        PTCLDY    68  64  86 SE5       30.02S
$$

WIZ013-073-240300-
NORTHEAST WISCONSIN

CITY           SKY/WX    TMP DP  RH WIND       PRES   REMARKS
IRON MOUNTAIN  PTCLDY    69  61  75 SE5       30.03S
MARINETTE        N/A    N/A N/A N/A MISG        N/A
OCONTO         PTCLDY    71  64  80 S7        30.04S
$$

WIZ017-030-035>037-045-240300-
CENTRAL WISCONSIN

CITY           SKY/WX    TMP DP  RH WIND       PRES   REMARKS
MEDFORD        PTCLDY    67  64  90 SE8       29.99F
WAUSAU         PTCLDY    69  62  78 SE7       30.00S
MOSINEE        PTCLDY    66  63  88 SE5       30.03S
MARSHFIELD     CLOUDY    70  61  73 SE7       29.99F
WISC RAPIDS    CLOUDY    71  63  75 S7        30.02F
STEVENS POINT  PTCLDY    70  61  73 S6        30.03S
WAUPACA        PTCLDY    71  62  73 SE5       30.04R
SHAWANO        PTCLDY    72  62  71 S6        30.04S
CLINTONVILLE   CLOUDY    68  61  77 SE6       30.03S
WAUTOMA        PTCLDY    69  62  78 SE5       30.04R
$$

WIZ038-039-048-051-240300-
FOX VALLEY

CITY           SKY/WX    TMP DP  RH WIND       PRES   REMARKS
NWS GREEN BAY  CLEAR     67  64  90 SE8       30.05S
APPLETON       PTCLDY    72  59  64 S8        30.04S
OSHKOSH        CLEAR     67  60  78 S6        30.05S
FOND DU LAC    CLEAR     66  61  84 S7        30.06S
$$

WIZ022-050-052-240300-
EAST CENTRAL WISCONSIN

CITY           SKY/WX    TMP DP  RH WIND       PRES   REMARKS
EPHRAIM        FAIR      68  64  85 S10G21    30.06S
WASHINGTON ISL NOT AVBL
STURGEON BAY   PTCLDY    69  62  78 S14       30.07S
MANITOWOC      CLEAR     69  62  78 S13       30.08S
SHEBOYGAN      CLEAR     68  62  81 S7        30.08S
$$

LMZ563-521-522-541>543-240300-
LAKESHORE

STATION/POSITION TIME  TEMP    WIND        PRES    VSBY  WAVE
                       AIR SEA DIR/SP/G                  HT/PER
                 (UTC) (F)     (DEG/KT/KT) (MB)    (MI)  (FT/S)
SHEBOYGAN LKSHOR 0200   67     180/ 16/ 17 1018.0R
KEWAUNEE LKSHORE 0100   67                 1017.9F
NORTHPORT PIER   0100   70     170/  9/ 16 1017.9F
N MID LAKE BUOY  0150   72 71  190/ 19/ 23 1017.5S         6/ 7
S GREEN BAY BUOY 0100   73 74  170/ 16/ 17 1016.8F
SISTER BAY LKSHO 0107   72     190/ 17/ 19   N/A
CHAMBERS ISLAND  0100   72     150/  5/ 13 1017.3F
MENOMINEE LKSHOR 0100   72                 1016.6F
$$



USA.gov is the U.S. government's official web portal to all federal, state and local government web resources and services.